Time,TemperatureF,DewpointF,PressureIn,WindDirection,WindDirectionDegrees,WindSpeedMPH,WindSpeedGustMPH,Humidity,HourlyPrecipIn,Conditions,Clouds,dailyrainin,SoftwareType,DateUTC
2013-01-18 00:05:00,27.5,19.7,30.24,South,186,4.0,4.0,72,0.00,,,0.00,Wunderground v.1.15,2013-01-18 05:05:00,
2013-01-18 00:10:00,27.4,19.9,30.24,NW,316,4.0,5.0,73,0.00,,,0.00,Wunderground v.1.15,2013-01-18 05:10:00,
2013-01-18 00:20:00,27.0,19.2,30.25,SW,232,4.0,5.0,72,0.00,,,0.00,Wunderground v.1.15,2013-01-18 05:20:00,
2013-01-18 00:25:00,26.7,18.6,30.25,East,87,5.0,5.0,71,0.00,,,0.00,Wunderground v.1.15,2013-01-18 05:25:00,
2013-01-18 00:30:00,26.5,18.4,30.26,NW,324,4.0,4.0,71,0.00,,,0.00,Wunderground v.1.15,2013-01-18 05:30:00,
2013-01-18 00:35:00,26.3,18.2,30.26,NNW,327,4.0,6.0,71,0.00,,,0.00,Wunderground v.1.15,2013-01-18 05:35:00,
2013-01-18 00:40:00,26.1,18.0,30.26,NW,324,4.0,9.0,71,0.00,,,0.00,Wunderground v.1.15,2013-01-18 05:40:00,
2013-01-18 00:45:00,25.9,17.8,30.27,SSW,211,4.0,9.0,71,0.00,,,0.00,Wunderground v.1.15,2013-01-18 05:45:00,
2013-01-18 00:50:00,25.8,17.7,30.27,WSW,246,4.0,4.0,71,0.00,,,0.00,Wunderground v.1.15,2013-01-18 05:50:00,
2013-01-18 00:55:00,25.7,17.6,30.27,WSW,246,4.0,5.0,71,0.00,,,0.00,Wunderground v.1.15,2013-01-18 05:55:00,
2013-01-18 01:00:00,25.6,17.2,30.28,NW,312,4.0,5.0,70,0.00,,,0.00,Wunderground v.1.15,2013-01-18 06:00:00,
2013-01-18 01:10:00,25.4,16.6,30.29,NW,318,5.0,5.0,69,0.00,,,0.00,Wunderground v.1.15,2013-01-18 06:10:00,
2013-01-18 01:15:00,25.4,16.6,30.29,SW,225,4.0,-999.0,69,0.00,,,0.00,Wunderground v.1.15,2013-01-18 06:15:00,
2013-01-18 01:20:00,25.3,16.9,30.30,WSW,248,3.0,-999.0,70,0.00,,,0.00,Wunderground v.1.15,2013-01-18 06:20:00,
2013-01-18 01:25:00,25.2,16.8,30.30,West,270,3.0,-999.0,70,0.00,,,0.00,Wunderground v.1.15,2013-01-18 06:25:00,
2013-01-18 01:30:00,25.1,16.7,30.30,WSW,248,4.0,-999.0,70,0.00,,,0.00,Wunderground v.1.15,2013-01-18 06:30:00,
2013-01-18 01:35:00,25.0,16.9,30.31,West,270,4.0,-999.0,71,0.00,,,0.00,Wunderground v.1.15,2013-01-18 06:35:00,
2013-01-18 01:40:00,24.8,16.7,30.31,WNW,293,4.0,-999.0,71,0.00,,,0.00,Wunderground v.1.15,2013-01-18 06:40:00,
2013-01-18 01:45:00,24.6,16.5,30.32,WSW,248,4.0,-999.0,71,0.00,,,0.00,Wunderground v.1.15,2013-01-18 06:45:00,
2013-01-18 01:50:00,24.4,16.0,30.32,WSW,248,2.0,-999.0,70,0.00,,,0.00,Wunderground v.1.15,2013-01-18 06:50:00,
2013-01-18 01:55:00,24.3,15.9,30.33,WNW,293,3.0,-999.0,70,0.00,,,0.00,Wunderground v.1.15,2013-01-18 06:55:00,
2013-01-18 02:00:00,24.2,15.8,30.33,NW,315,4.0,-999.0,70,0.00,,,0.00,Wunderground v.1.15,2013-01-18 07:00:00,
2013-01-18 02:05:00,24.0,16.0,30.34,West,270,4.0,-999.0,71,0.00,,,0.00,Wunderground v.1.15,2013-01-18 07:05:00,
2013-01-18 02:10:00,24.0,16.0,30.34,West,270,3.0,-999.0,71,0.00,,,0.00,Wunderground v.1.15,2013-01-18 07:10:00,
2013-01-18 02:15:00,23.9,16.2,30.34,WNW,293,4.0,-999.0,72,0.00,,,0.00,Wunderground v.1.15,2013-01-18 07:15:00,
2013-01-18 02:20:00,23.7,15.7,30.35,SW,225,5.0,-999.0,71,0.00,,,0.00,Wunderground v.1.15,2013-01-18 07:20:00,
2013-01-18 02:25:00,23.4,15.7,30.35,SW,225,3.0,-999.0,72,0.00,,,0.00,Wunderground v.1.15,2013-01-18 07:25:00,
2013-01-18 02:30:00,23.1,15.1,30.36,SW,225,6.0,-999.0,71,0.00,,,0.00,Wunderground v.1.15,2013-01-18 07:30:00,
2013-01-18 02:35:00,22.7,14.7,30.36,SW,225,5.0,-999.0,71,0.00,,,0.00,Wunderground v.1.15,2013-01-18 07:35:00,
2013-01-18 02:40:00,22.4,14.4,30.36,NW,315,3.0,-999.0,71,0.00,,,0.00,Wunderground v.1.15,2013-01-18 07:40:00,
2013-01-18 02:45:00,22.2,14.2,30.36,West,270,4.0,-999.0,71,0.00,,,0.00,Wunderground v.1.15,2013-01-18 07:45:00,
2013-01-18 02:50:00,22.0,14.3,30.36,West,270,3.0,-999.0,72,0.00,,,0.00,Wunderground v.1.15,2013-01-18 07:50:00,
2013-01-18 02:55:00,21.8,14.2,30.37,SW,225,2.0,-999.0,72,0.00,,,0.00,Wunderground v.1.15,2013-01-18 07:55:00,
2013-01-18 03:00:00,21.6,14.0,30.37,WNW,293,3.0,-999.0,72,0.00,,,0.00,Wunderground v.1.15,2013-01-18 08:00:00,
2013-01-18 03:05:00,21.5,13.9,30.37,NNE,23,2.0,-999.0,72,0.00,,,0.00,Wunderground v.1.15,2013-01-18 08:05:00,
2013-01-18 03:10:00,21.4,13.8,30.37,WSW,248,3.0,-999.0,72,0.00,,,0.00,Wunderground v.1.15,2013-01-18 08:10:00,
2013-01-18 03:15:00,21.4,13.8,30.38,SW,225,2.0,-999.0,72,0.00,,,0.00,Wunderground v.1.15,2013-01-18 08:15:00,
2013-01-18 03:20:00,21.4,13.8,30.38,SW,225,2.0,-999.0,72,0.00,,,0.00,Wunderground v.1.15,2013-01-18 08:20:00,
2013-01-18 03:25:00,21.4,13.8,30.38,WSW,248,2.0,-999.0,72,0.00,,,0.00,Wunderground v.1.15,2013-01-18 08:25:00,
2013-01-18 03:30:00,21.4,13.1,30.39,WNW,293,3.0,-999.0,70,0.00,,,0.00,Wunderground v.1.15,2013-01-18 08:30:00,
2013-01-18 03:35:00,21.5,13.2,30.39,West,270,2.0,-999.0,70,0.00,,,0.00,Wunderground v.1.15,2013-01-18 08:35:00,
2013-01-18 03:40:00,21.5,12.9,30.39,West,270,3.0,-999.0,69,0.00,,,0.00,Wunderground v.1.15,2013-01-18 08:40:00,
2013-01-18 03:45:00,21.5,12.6,30.39,WSW,248,3.0,-999.0,68,0.00,,,0.00,Wunderground v.1.15,2013-01-18 08:45:00,
2013-01-18 03:50:00,21.5,12.6,30.39,WSW,248,3.0,-999.0,68,0.00,,,0.00,Wunderground v.1.15,2013-01-18 08:50:00,
2013-01-18 03:55:00,21.5,12.6,30.39,West,270,3.0,-999.0,68,0.00,,,0.00,Wunderground v.1.15,2013-01-18 08:55:00,
2013-01-18 04:00:00,21.5,12.6,30.39,SW,225,2.0,-999.0,68,0.00,,,0.00,Wunderground v.1.15,2013-01-18 09:00:00,
2013-01-18 04:05:00,21.4,12.5,30.39,ESE,113,1.0,-999.0,68,0.00,,,0.00,Wunderground v.1.15,2013-01-18 09:05:00,
2013-01-18 04:10:00,21.3,12.0,30.39,WNW,293,2.0,-999.0,67,0.00,,,0.00,Wunderground v.1.15,2013-01-18 09:10:00,
2013-01-18 04:15:00,21.2,11.9,30.39,NNE,23,2.0,-999.0,67,0.00,,,0.00,Wunderground v.1.15,2013-01-18 09:15:00,
2013-01-18 04:20:00,21.1,11.5,30.39,WSW,248,2.0,-999.0,66,0.00,,,0.00,Wunderground v.1.15,2013-01-18 09:20:00,
2013-01-18 04:25:00,21.0,11.4,30.39,WSW,248,2.0,-999.0,66,0.00,,,0.00,Wunderground v.1.15,2013-01-18 09:25:00,
2013-01-18 04:30:00,21.0,11.4,30.40,SSW,203,2.0,-999.0,66,0.00,,,0.00,Wunderground v.1.15,2013-01-18 09:30:00,
2013-01-18 04:35:00,20.9,11.0,30.40,ENE,68,3.0,-999.0,65,0.00,,,0.00,Wunderground v.1.15,2013-01-18 09:35:00,
2013-01-18 04:40:00,20.8,10.9,30.40,WNW,293,1.0,-999.0,65,0.00,,,0.00,Wunderground v.1.15,2013-01-18 09:40:00,
2013-01-18 04:45:00,20.7,10.8,30.40,NNE,23,2.0,-999.0,65,0.00,,,0.00,Wunderground v.1.15,2013-01-18 09:45:00,
2013-01-18 04:50:00,20.6,11.0,30.41,WNW,293,1.0,-999.0,66,0.00,,,0.00,Wunderground v.1.15,2013-01-18 09:50:00,
2013-01-18 04:55:00,20.5,10.9,30.41,NNW,338,1.0,-999.0,66,0.00,,,0.00,Wunderground v.1.15,2013-01-18 09:55:00,
2013-01-18 05:00:00,20.4,10.8,30.41,NW,315,2.0,-999.0,66,0.00,,,0.00,Wunderground v.1.15,2013-01-18 10:00:00,
2013-01-18 05:05:00,20.4,10.8,30.41,NNE,23,3.0,-999.0,66,0.00,,,0.00,Wunderground v.1.15,2013-01-18 10:05:00,
2013-01-18 05:10:00,20.5,10.9,30.41,NNE,23,2.0,-999.0,66,0.00,,,0.00,Wunderground v.1.15,2013-01-18 10:10:00,
2013-01-18 05:15:00,20.5,10.9,30.41,NE,45,2.0,-999.0,66,0.00,,,0.00,Wunderground v.1.15,2013-01-18 10:15:00,
2013-01-18 05:20:00,20.4,10.8,30.41,NNE,23,2.0,-999.0,66,0.00,,,0.00,Wunderground v.1.15,2013-01-18 10:20:00,
2013-01-18 05:25:00,20.4,10.8,30.41,NE,45,2.0,-999.0,66,0.00,,,0.00,Wunderground v.1.15,2013-01-18 10:25:00,
2013-01-18 05:30:00,20.5,10.9,30.41,East,90,1.0,-999.0,66,0.00,,,0.00,Wunderground v.1.15,2013-01-18 10:30:00,
2013-01-18 05:35:00,20.4,10.8,30.42,NNE,23,1.0,-999.0,66,0.00,,,0.00,Wunderground v.1.15,2013-01-18 10:35:00,
2013-01-18 05:40:00,20.3,10.7,30.42,WNW,293,0.0,-999.0,66,0.00,,,0.00,Wunderground v.1.15,2013-01-18 10:40:00,
2013-01-18 05:45:00,20.1,10.6,30.42,East,90,0.0,-999.0,66,0.00,,,0.00,Wunderground v.1.15,2013-01-18 10:45:00,
2013-01-18 05:50:00,19.9,10.7,30.42,East,90,0.0,-999.0,67,0.00,,,0.00,Wunderground v.1.15,2013-01-18 10:50:00,
2013-01-18 05:55:00,19.7,10.8,30.42,SSW,203,0.0,-999.0,68,0.00,,,0.00,Wunderground v.1.15,2013-01-18 10:55:00,
2013-01-18 06:00:00,19.5,11.0,30.42,SW,225,0.0,-999.0,69,0.00,,,0.00,Wunderground v.1.15,2013-01-18 11:00:00,
2013-01-18 06:05:00,19.3,11.4,30.42,SSW,203,0.0,-999.0,71,0.00,,,0.00,Wunderground v.1.15,2013-01-18 11:05:00,
2013-01-18 06:10:00,19.1,11.2,30.42,SSW,203,2.0,-999.0,71,0.00,,,0.00,Wunderground v.1.15,2013-01-18 11:10:00,
2013-01-18 06:15:00,19.0,11.8,30.42,SSW,203,1.0,-999.0,73,0.00,,,0.00,Wunderground v.1.15,2013-01-18 11:15:00,
2013-01-18 06:20:00,18.8,11.6,30.42,SSW,203,0.0,-999.0,73,0.00,,,0.00,Wunderground v.1.15,2013-01-18 11:20:00,
2013-01-18 06:25:00,18.5,11.6,30.43,SSW,203,0.0,-999.0,74,0.00,,,0.00,Wunderground v.1.15,2013-01-18 11:25:00,
2013-01-18 06:30:00,18.2,11.6,30.43,N/A,-737280,0.0,-999.0,75,0.00,,,0.00,Wunderground v.1.15,2013-01-18 11:30:00,
2013-01-18 06:35:00,17.8,11.8,30.43,SSW,203,0.0,-999.0,77,0.00,,,0.00,Wunderground v.1.15,2013-01-18 11:35:00,
2013-01-18 06:40:00,17.3,11.3,30.43,N/A,-737280,0.0,-999.0,77,0.00,,,0.00,Wunderground v.1.15,2013-01-18 11:40:00,
2013-01-18 06:45:00,16.8,11.1,30.43,N/A,-737280,0.0,-999.0,78,0.00,,,0.00,Wunderground v.1.15,2013-01-18 11:45:00,
2013-01-18 06:50:00,16.4,11.3,30.43,SSW,203,0.0,-999.0,80,0.00,,,0.00,Wunderground v.1.15,2013-01-18 11:50:00,
2013-01-18 06:55:00,16.3,11.5,30.43,SSW,203,1.0,-999.0,81,0.00,,,0.00,Wunderground v.1.15,2013-01-18 11:55:00,
2013-01-18 07:00:00,16.1,11.3,30.43,SSW,203,1.0,-999.0,81,0.00,,,0.00,Wunderground v.1.15,2013-01-18 12:00:00,
2013-01-18 07:05:00,15.8,11.3,30.44,SSW,203,0.0,-999.0,82,0.00,,,0.00,Wunderground v.1.15,2013-01-18 12:05:00,
2013-01-18 07:10:00,15.7,11.2,30.44,N/A,-737280,0.0,-999.0,82,0.00,,,0.00,Wunderground v.1.15,2013-01-18 12:10:00,
2013-01-18 07:15:00,15.5,11.3,30.44,SSW,203,0.0,-999.0,83,0.00,,,0.00,Wunderground v.1.15,2013-01-18 12:15:00,
2013-01-18 07:20:00,15.4,11.2,30.44,N/A,-737280,0.0,-999.0,83,0.00,,,0.00,Wunderground v.1.15,2013-01-18 12:20:00,
2013-01-18 07:25:00,15.2,11.0,30.44,N/A,-737280,0.0,-999.0,83,0.00,,,0.00,Wunderground v.1.15,2013-01-18 12:25:00,
2013-01-18 07:30:00,14.8,10.6,30.45,N/A,-737280,0.0,-999.0,83,0.00,,,0.00,Wunderground v.1.15,2013-01-18 12:30:00,
2013-01-18 07:35:00,14.8,10.8,30.45,N/A,-737280,0.0,-999.0,84,0.00,,,0.00,Wunderground v.1.15,2013-01-18 12:35:00,
2013-01-18 07:40:00,14.7,11.0,30.45,N/A,-737280,0.0,-999.0,85,0.00,,,0.00,Wunderground v.1.15,2013-01-18 12:40:00,
2013-01-18 07:45:00,14.7,11.0,30.45,N/A,-737280,0.0,-999.0,85,0.00,,,0.00,Wunderground v.1.15,2013-01-18 12:45:00,
2013-01-18 07:50:00,14.7,11.3,30.44,N/A,-737280,0.0,-999.0,86,0.00,,,0.00,Wunderground v.1.15,2013-01-18 12:50:00,
2013-01-18 07:55:00,14.7,11.3,30.44,N/A,-737280,0.0,-999.0,86,0.00,,,0.00,Wunderground v.1.15,2013-01-18 12:55:00,
2013-01-18 08:00:00,14.8,11.4,30.44,N/A,-737280,0.0,-999.0,86,0.00,,,0.00,Wunderground v.1.15,2013-01-18 13:00:00,
2013-01-18 08:05:00,14.6,10.9,30.45,N/A,-737280,0.0,-999.0,85,0.00,,,0.00,Wunderground v.1.15,2013-01-18 13:05:00,
2013-01-18 08:10:00,14.4,11.2,30.45,N/A,-737280,0.0,-999.0,87,0.00,,,0.00,Wunderground v.1.15,2013-01-18 13:10:00,
2013-01-18 08:15:00,14.6,11.4,30.45,N/A,-737280,0.0,-999.0,87,0.00,,,0.00,Wunderground v.1.15,2013-01-18 13:15:00,
2013-01-18 08:20:00,14.7,11.8,30.46,SW,225,0.0,-999.0,88,0.00,,,0.00,Wunderground v.1.15,2013-01-18 13:20:00,
2013-01-18 08:25:00,15.0,12.1,30.46,SSW,203,2.0,-999.0,88,0.00,,,0.00,Wunderground v.1.15,2013-01-18 13:25:00,
2013-01-18 08:30:00,15.6,12.4,30.46,SSW,203,1.0,-999.0,87,0.00,,,0.00,Wunderground v.1.15,2013-01-18 13:30:00,
2013-01-18 08:35:00,16.3,12.6,30.47,SSW,203,3.0,-999.0,85,0.00,,,0.00,Wunderground v.1.15,2013-01-18 13:35:00,
2013-01-18 08:45:00,17.7,12.9,30.47,SSW,193,4.0,4.0,81,0.00,,,0.00,Wunderground v.1.15,2013-01-18 13:45:00,
2013-01-18 08:55:00,18.4,13.0,30.47,SSE,166,3.0,3.0,79,0.00,,,0.00,Wunderground v.1.15,2013-01-18 13:55:00,
2013-01-18 09:00:00,18.8,13.4,30.47,SW,218,2.0,2.0,79,0.00,,,0.00,Wunderground v.1.15,2013-01-18 14:00:00,
2013-01-18 09:10:00,19.6,13.6,30.47,SW,236,2.0,3.0,77,0.00,,,0.00,Wunderground v.1.15,2013-01-18 14:10:00,
2013-01-18 09:15:00,20.0,13.6,30.47,SW,221,3.0,3.0,76,0.00,,,0.00,Wunderground v.1.15,2013-01-18 14:15:00,
2013-01-18 09:20:00,20.4,13.7,30.47,SSW,198,3.0,4.0,75,0.00,,,0.00,Wunderground v.1.15,2013-01-18 14:20:00,
2013-01-18 09:30:00,21.1,14.4,30.48,SSW,203,4.0,6.0,75,0.00,,,0.00,Wunderground v.1.15,2013-01-18 14:30:00,
2013-01-18 09:35:00,21.6,14.9,30.48,SSE,158,5.0,6.0,75,0.00,,,0.00,Wunderground v.1.15,2013-01-18 14:35:00,
2013-01-18 09:40:00,22.1,14.8,30.48,SW,235,3.0,3.0,73,0.00,,,0.00,Wunderground v.1.15,2013-01-18 14:40:00,
2013-01-18 09:45:00,22.6,15.2,30.48,SSW,204,2.0,3.0,73,0.00,,,0.00,Wunderground v.1.15,2013-01-18 14:45:00,
2013-01-18 09:55:00,23.5,15.8,30.48,SSW,198,3.0,4.0,72,0.00,,,0.00,Wunderground v.1.15,2013-01-18 14:55:00,
2013-01-18 10:00:00,23.8,16.1,30.49,SSE,168,4.0,5.0,72,0.00,,,0.00,Wunderground v.1.15,2013-01-18 15:00:00,
2013-01-18 10:10:00,24.3,16.6,30.48,South,186,5.0,6.0,72,0.00,,,0.00,Wunderground v.1.15,2013-01-18 15:10:00,
2013-01-18 10:15:00,24.7,17.3,30.48,WSW,246,5.0,6.0,73,0.00,,,0.00,Wunderground v.1.15,2013-01-18 15:15:00,
2013-01-18 10:20:00,25.0,17.2,30.48,ESE,123,4.0,4.0,72,0.00,,,0.00,Wunderground v.1.15,2013-01-18 15:20:00,
2013-01-18 10:30:00,25.3,16.9,30.48,South,186,3.0,3.0,70,0.00,,,0.00,Wunderground v.1.15,2013-01-18 15:30:00,
2013-01-18 10:35:00,25.3,16.9,30.48,WSW,245,2.0,3.0,70,0.00,,,0.00,Wunderground v.1.15,2013-01-18 15:35:00,
2013-01-18 10:40:00,25.7,17.6,30.48,SW,225,3.0,8.0,71,0.00,,,0.00,Wunderground v.1.15,2013-01-18 15:40:00,
2013-01-18 10:45:00,25.8,17.0,30.48,West,259,4.0,8.0,69,0.00,,,0.00,Wunderground v.1.15,2013-01-18 15:45:00,
2013-01-18 10:50:00,25.9,16.8,30.47,WSW,248,4.0,4.0,68,0.00,,,0.00,Wunderground v.1.15,2013-01-18 15:50:00,
2013-01-18 10:55:00,26.1,17.3,30.47,SSW,204,4.0,4.0,69,0.00,,,0.00,Wunderground v.1.15,2013-01-18 15:55:00,
2013-01-18 11:00:00,26.3,17.5,30.47,WSW,241,4.0,4.0,69,0.00,,,0.00,Wunderground v.1.15,2013-01-18 16:00:00,
2013-01-18 11:10:00,26.9,18.1,30.47,SSW,210,5.0,5.0,69,0.00,,,0.00,Wunderground v.1.15,2013-01-18 16:10:00,
2013-01-18 11:15:00,27.1,18.6,30.46,South,170,5.0,6.0,70,0.00,,,0.00,Wunderground v.1.15,2013-01-18 16:15:00,
2013-01-18 11:20:00,27.5,18.7,30.46,WSW,239,5.0,5.0,69,0.00,,,0.00,Wunderground v.1.15,2013-01-18 16:20:00,
2013-01-18 11:25:00,27.5,18.3,30.46,SSE,163,4.0,8.0,68,0.00,,,0.00,Wunderground v.1.15,2013-01-18 16:25:00,
2013-01-18 11:30:00,27.7,18.5,30.46,West,263,6.0,6.0,68,0.00,,,0.00,Wunderground v.1.15,2013-01-18 16:30:00,
2013-01-18 11:40:00,27.7,18.5,30.45,SSW,196,5.0,8.0,68,0.00,,,0.00,Wunderground v.1.15,2013-01-18 16:40:00,
2013-01-18 11:45:00,27.9,18.4,30.45,South,187,6.0,8.0,67,0.00,,,0.00,Wunderground v.1.15,2013-01-18 16:45:00,
2013-01-18 11:50:00,28.3,18.7,30.44,SSW,210,7.0,7.0,67,0.00,,,0.00,Wunderground v.1.15,2013-01-18 16:50:00,
2013-01-18 11:55:00,28.3,18.4,30.44,SW,225,8.0,8.0,66,0.00,,,0.00,Wunderground v.1.15,2013-01-18 16:55:00,
2013-01-18 12:00:00,28.3,18.4,30.44,West,271,6.0,6.0,66,0.00,,,0.00,Wunderground v.1.15,2013-01-18 17:00:00,
2013-01-18 12:10:00,28.1,18.5,30.43,West,264,6.0,6.0,67,0.00,,,0.00,Wunderground v.1.15,2013-01-18 17:10:00,
2013-01-18 12:15:00,28.4,18.1,30.43,South,190,6.0,6.0,65,0.00,,,0.00,Wunderground v.1.15,2013-01-18 17:15:00,
2013-01-18 12:20:00,29.0,19.8,30.42,South,186,6.0,9.0,68,0.00,,,0.00,Wunderground v.1.15,2013-01-18 17:20:00,
2013-01-18 12:25:00,29.4,19.4,30.42,SSE,163,7.0,9.0,66,0.00,,,0.00,Wunderground v.1.15,2013-01-18 17:25:00,
2013-01-18 12:30:00,29.4,19.8,30.42,South,169,7.0,7.0,67,0.00,,,0.00,Wunderground v.1.15,2013-01-18 17:30:00,
2013-01-18 12:35:00,29.4,18.7,30.42,WSW,245,8.0,8.0,64,0.00,,,0.00,Wunderground v.1.15,2013-01-18 17:35:00,
2013-01-18 12:45:00,29.7,19.0,30.41,SSW,194,6.0,7.0,64,0.00,,,0.00,Wunderground v.1.15,2013-01-18 17:45:00,
2013-01-18 12:50:00,29.8,18.7,30.41,South,191,6.0,6.0,63,0.00,,,0.00,Wunderground v.1.15,2013-01-18 17:50:00,
2013-01-18 12:55:00,30.0,19.3,30.41,South,174,8.0,10.0,64,0.00,,,0.00,Wunderground v.1.15,2013-01-18 17:55:00,
2013-01-18 13:00:00,30.1,19.7,30.41,South,191,8.0,8.0,65,0.00,,,0.00,Wunderground v.1.15,2013-01-18 18:00:00,
2013-01-18 13:10:00,30.8,20.8,30.40,South,189,7.0,7.0,66,0.00,,,0.00,Wunderground v.1.15,2013-01-18 18:10:00,
2013-01-18 13:20:00,30.9,20.9,30.40,South,181,9.0,9.0,66,0.00,,,0.00,Wunderground v.1.15,2013-01-18 18:20:00,
2013-01-18 13:25:00,31.0,20.2,30.39,South,181,8.0,9.0,64,0.00,,,0.00,Wunderground v.1.15,2013-01-18 18:25:00,
2013-01-18 13:30:00,31.2,21.2,30.39,SSW,194,9.0,9.0,66,0.00,,,0.00,Wunderground v.1.15,2013-01-18 18:30:00,
2013-01-18 13:35:00,31.3,20.2,30.39,SW,217,9.0,9.0,63,0.00,,,0.00,Wunderground v.1.15,2013-01-18 18:35:00,
2013-01-18 13:40:00,31.4,21.0,30.39,SSW,205,9.0,11.0,65,0.00,,,0.00,Wunderground v.1.15,2013-01-18 18:40:00,
2013-01-18 13:45:00,31.6,21.2,30.38,South,187,9.0,11.0,65,0.00,,,0.00,Wunderground v.1.15,2013-01-18 18:45:00,
2013-01-18 13:55:00,31.8,21.0,30.38,SW,225,9.0,15.0,64,0.00,,,0.00,Wunderground v.1.15,2013-01-18 18:55:00,
2013-01-18 14:00:00,31.8,20.3,30.38,SSW,203,9.0,-999.0,62,0.00,,,0.00,Wunderground v.1.15,2013-01-18 19:00:00,
2013-01-18 14:05:00,32.0,21.6,30.37,SSW,203,9.0,-999.0,65,0.00,,,0.00,Wunderground v.1.15,2013-01-18 19:05:00,
2013-01-18 14:10:00,32.1,20.5,30.38,SW,225,10.0,-999.0,62,0.00,,,0.00,Wunderground v.1.15,2013-01-18 19:10:00,
2013-01-18 14:15:00,32.1,20.2,30.38,SW,225,10.0,-999.0,61,0.00,,,0.00,Wunderground v.1.15,2013-01-18 19:15:00,
2013-01-18 14:20:00,32.1,20.5,30.37,SSW,203,10.0,-999.0,62,0.00,,,0.00,Wunderground v.1.15,2013-01-18 19:20:00,
2013-01-18 14:25:00,32.3,20.7,30.36,SSW,203,10.0,-999.0,62,0.00,,,0.00,Wunderground v.1.15,2013-01-18 19:25:00,
2013-01-18 14:30:00,32.6,21.4,30.36,SSW,203,9.0,-999.0,63,0.00,,,0.00,Wunderground v.1.15,2013-01-18 19:30:00,
2013-01-18 14:35:00,32.8,20.8,30.36,SW,225,10.0,-999.0,61,0.00,,,0.00,Wunderground v.1.15,2013-01-18 19:35:00,
2013-01-18 14:40:00,32.5,20.9,30.36,SSW,203,10.0,-999.0,62,0.00,,,0.00,Wunderground v.1.15,2013-01-18 19:40:00,
2013-01-18 14:45:00,32.6,21.0,30.35,SSW,203,11.0,-999.0,62,0.00,,,0.00,Wunderground v.1.15,2013-01-18 19:45:00,
2013-01-18 14:50:00,32.9,20.9,30.36,SSW,203,11.0,-999.0,61,0.00,,,0.00,Wunderground v.1.15,2013-01-18 19:50:00,
2013-01-18 14:55:00,33.0,20.2,30.35,SSW,203,11.0,-999.0,59,0.00,,,0.00,Wunderground v.1.15,2013-01-18 19:55:00,
2013-01-18 15:00:00,32.9,20.1,30.35,SW,225,9.0,-999.0,59,0.00,,,0.00,Wunderground v.1.15,2013-01-18 20:00:00,
2013-01-18 15:05:00,33.2,20.0,30.35,SW,225,9.0,-999.0,58,0.00,,,0.00,Wunderground v.1.15,2013-01-18 20:05:00,
2013-01-18 15:10:00,33.4,21.0,30.35,SSW,203,10.0,-999.0,60,0.00,,,0.00,Wunderground v.1.15,2013-01-18 20:10:00,
2013-01-18 15:15:00,33.6,22.0,30.35,SSW,203,9.0,-999.0,62,0.00,,,0.00,Wunderground v.1.15,2013-01-18 20:15:00,
2013-01-18 15:20:00,33.6,21.6,30.35,South,180,11.0,-999.0,61,0.00,,,0.00,Wunderground v.1.15,2013-01-18 20:20:00,
2013-01-18 15:25:00,33.6,21.6,30.35,SSW,203,12.0,-999.0,61,0.00,,,0.00,Wunderground v.1.15,2013-01-18 20:25:00,
2013-01-18 15:30:00,33.4,21.4,30.35,SSW,203,12.0,-999.0,61,0.00,,,0.00,Wunderground v.1.15,2013-01-18 20:30:00,
2013-01-18 15:35:00,33.3,22.1,30.35,SSW,203,10.0,-999.0,63,0.00,,,0.00,Wunderground v.1.15,2013-01-18 20:35:00,
2013-01-18 15:40:00,33.5,21.9,30.34,SSW,203,12.0,-999.0,62,0.00,,,0.00,Wunderground v.1.15,2013-01-18 20:40:00,
2013-01-18 15:45:00,33.3,21.7,30.34,SSW,203,12.0,-999.0,62,0.00,,,0.00,Wunderground v.1.15,2013-01-18 20:45:00,
2013-01-18 15:50:00,33.2,22.0,30.34,SSW,203,11.0,-999.0,63,0.00,,,0.00,Wunderground v.1.15,2013-01-18 20:50:00,
2013-01-18 15:55:00,33.1,21.9,30.34,SSW,203,11.0,-999.0,63,0.00,,,0.00,Wunderground v.1.15,2013-01-18 20:55:00,
2013-01-18 16:00:00,32.6,21.8,30.34,SSW,203,12.0,-999.0,64,0.00,,,0.00,Wunderground v.1.15,2013-01-18 21:00:00,
2013-01-18 16:05:00,32.3,21.1,30.34,SSW,203,12.0,-999.0,63,0.00,,,0.00,Wunderground v.1.15,2013-01-18 21:05:00,
2013-01-18 16:10:00,32.1,21.3,30.33,SSW,203,10.0,-999.0,64,0.00,,,0.00,Wunderground v.1.15,2013-01-18 21:10:00,
2013-01-18 16:15:00,32.0,21.6,30.33,SSW,203,9.0,-999.0,65,0.00,,,0.00,Wunderground v.1.15,2013-01-18 21:15:00,
2013-01-18 16:20:00,32.0,21.6,30.33,SSW,203,11.0,-999.0,65,0.00,,,0.00,Wunderground v.1.15,2013-01-18 21:20:00,
2013-01-18 16:25:00,31.9,20.7,30.33,SSW,203,12.0,-999.0,63,0.00,,,0.00,Wunderground v.1.15,2013-01-18 21:25:00,
2013-01-18 16:30:00,32.1,21.3,30.32,SSW,203,13.0,-999.0,64,0.00,,,0.00,Wunderground v.1.15,2013-01-18 21:30:00,
2013-01-18 16:35:00,32.2,21.4,30.32,SSW,203,11.0,-999.0,64,0.00,,,0.00,Wunderground v.1.15,2013-01-18 21:35:00,
2013-01-18 16:40:00,32.4,21.9,30.32,SSW,203,11.0,-999.0,65,0.00,,,0.00,Wunderground v.1.15,2013-01-18 21:40:00,
2013-01-18 16:45:00,32.6,21.8,30.32,SSW,203,11.0,-999.0,64,0.00,,,0.00,Wunderground v.1.15,2013-01-18 21:45:00,
2013-01-18 16:50:00,32.6,21.8,30.32,South,180,11.0,-999.0,64,0.00,,,0.00,Wunderground v.1.15,2013-01-18 21:50:00,
2013-01-18 16:55:00,32.4,21.6,30.32,SSW,203,11.0,-999.0,64,0.00,,,0.00,Wunderground v.1.15,2013-01-18 21:55:00,
2013-01-18 17:00:00,32.1,22.0,30.31,SSW,203,9.0,-999.0,66,0.00,,,0.00,Wunderground v.1.15,2013-01-18 22:00:00,
2013-01-18 17:05:00,31.7,21.6,30.31,SSW,203,10.0,-999.0,66,0.00,,,0.00,Wunderground v.1.15,2013-01-18 22:05:00,
2013-01-18 17:10:00,31.5,21.8,30.31,SSW,203,11.0,-999.0,67,0.00,,,0.00,Wunderground v.1.15,2013-01-18 22:10:00,
2013-01-18 17:15:00,31.3,21.6,30.31,SSW,203,11.0,-999.0,67,0.00,,,0.00,Wunderground v.1.15,2013-01-18 22:15:00,
2013-01-18 17:20:00,31.1,21.8,30.31,SSW,203,9.0,-999.0,68,0.00,,,0.00,Wunderground v.1.15,2013-01-18 22:20:00,
2013-01-18 17:25:00,30.9,21.9,30.31,SSW,203,10.0,-999.0,69,0.00,,,0.00,Wunderground v.1.15,2013-01-18 22:25:00,
2013-01-18 17:30:00,30.8,21.8,30.31,SSW,203,10.0,-999.0,69,0.00,,,0.00,Wunderground v.1.15,2013-01-18 22:30:00,
2013-01-18 17:35:00,30.6,21.6,30.31,SSW,203,11.0,-999.0,69,0.00,,,0.00,Wunderground v.1.15,2013-01-18 22:35:00,
2013-01-18 17:40:00,30.6,21.6,30.31,South,180,10.0,-999.0,69,0.00,,,0.00,Wunderground v.1.15,2013-01-18 22:40:00,
2013-01-18 17:45:00,30.4,21.8,30.31,SSW,203,8.0,-999.0,70,0.00,,,0.00,Wunderground v.1.15,2013-01-18 22:45:00,
2013-01-18 17:50:00,30.3,22.0,30.31,SSW,203,9.0,-999.0,71,0.00,,,0.00,Wunderground v.1.15,2013-01-18 22:50:00,
2013-01-18 17:55:00,30.2,21.9,30.31,SSW,203,8.0,-999.0,71,0.00,,,0.00,Wunderground v.1.15,2013-01-18 22:55:00,
2013-01-18 18:00:00,30.1,22.2,30.31,South,180,9.0,-999.0,72,0.00,,,0.00,Wunderground v.1.15,2013-01-18 23:00:00,
2013-01-18 18:05:00,30.0,21.7,30.31,SSW,203,10.0,-999.0,71,0.00,,,0.00,Wunderground v.1.15,2013-01-18 23:05:00,
2013-01-18 18:10:00,30.1,21.8,30.31,South,180,10.0,-999.0,71,0.00,,,0.00,Wunderground v.1.15,2013-01-18 23:10:00,
2013-01-18 18:15:00,30.0,22.1,30.30,SSW,203,9.0,-999.0,72,0.00,,,0.00,Wunderground v.1.15,2013-01-18 23:15:00,
2013-01-18 18:20:00,30.0,22.1,30.30,SSW,203,8.0,-999.0,72,0.00,,,0.00,Wunderground v.1.15,2013-01-18 23:20:00,
2013-01-18 18:25:00,29.9,22.0,30.30,SSW,203,8.0,-999.0,72,0.00,,,0.00,Wunderground v.1.15,2013-01-18 23:25:00,
2013-01-18 18:30:00,29.8,21.9,30.30,South,180,8.0,-999.0,72,0.00,,,0.00,Wunderground v.1.15,2013-01-18 23:30:00,
2013-01-18 18:35:00,29.8,22.2,30.30,South,180,8.0,-999.0,73,0.00,,,0.00,Wunderground v.1.15,2013-01-18 23:35:00,
2013-01-18 18:40:00,29.8,22.2,30.30,South,180,8.0,-999.0,73,0.00,,,0.00,Wunderground v.1.15,2013-01-18 23:40:00,
2013-01-18 18:45:00,29.8,22.2,30.30,SSW,203,9.0,-999.0,73,0.00,,,0.00,Wunderground v.1.15,2013-01-18 23:45:00,
2013-01-18 18:50:00,29.8,22.2,30.29,SSW,203,11.0,-999.0,73,0.00,,,0.00,Wunderground v.1.15,2013-01-18 23:50:00,
2013-01-18 18:55:00,29.8,22.2,30.29,SSW,203,9.0,-999.0,73,0.00,,,0.00,Wunderground v.1.15,2013-01-18 23:55:00,
2013-01-18 19:00:00,29.8,22.2,30.29,SSW,203,11.0,-999.0,73,0.00,,,0.00,Wunderground v.1.15,2013-01-19 00:00:00,
2013-01-18 19:05:00,29.8,22.2,30.29,SSW,203,9.0,-999.0,73,0.00,,,0.00,Wunderground v.1.15,2013-01-19 00:05:00,
2013-01-18 19:10:00,29.8,22.2,30.29,SSW,203,12.0,-999.0,73,0.00,,,0.00,Wunderground v.1.15,2013-01-19 00:10:00,
2013-01-18 19:15:00,29.8,22.2,30.29,SSW,203,10.0,-999.0,73,0.00,,,0.00,Wunderground v.1.15,2013-01-19 00:15:00,
2013-01-18 19:20:00,29.8,22.2,30.29,SSW,203,12.0,-999.0,73,0.00,,,0.00,Wunderground v.1.15,2013-01-19 00:20:00,
2013-01-18 19:25:00,29.8,21.9,30.29,SSW,203,12.0,-999.0,72,0.00,,,0.00,Wunderground v.1.15,2013-01-19 00:25:00,
2013-01-18 19:30:00,29.9,22.0,30.28,SSW,203,12.0,-999.0,72,0.00,,,0.00,Wunderground v.1.15,2013-01-19 00:30:00,
2013-01-18 19:35:00,30.0,22.1,30.28,SSW,203,13.0,-999.0,72,0.00,,,0.00,Wunderground v.1.15,2013-01-19 00:35:00,
2013-01-18 19:40:00,30.0,21.7,30.28,SSW,203,13.0,-999.0,71,0.00,,,0.00,Wunderground v.1.15,2013-01-19 00:40:00,
2013-01-18 19:45:00,30.0,22.1,30.28,SSW,203,13.0,-999.0,72,0.00,,,0.00,Wunderground v.1.15,2013-01-19 00:45:00,
2013-01-18 19:50:00,30.0,21.7,30.28,SSW,203,14.0,-999.0,71,0.00,,,0.00,Wunderground v.1.15,2013-01-19 00:50:00,
2013-01-18 19:55:00,30.0,21.7,30.28,SSW,203,13.0,-999.0,71,0.00,,,0.00,Wunderground v.1.15,2013-01-19 00:55:00,
2013-01-18 20:00:00,30.1,21.8,30.27,SSW,203,14.0,-999.0,71,0.00,,,0.00,Wunderground v.1.15,2013-01-19 01:00:00,
2013-01-18 20:05:00,30.1,21.8,30.28,SSW,203,13.0,-999.0,71,0.00,,,0.00,Wunderground v.1.15,2013-01-19 01:05:00,
2013-01-18 20:10:00,30.1,21.5,30.28,SSW,203,13.0,-999.0,70,0.00,,,0.00,Wunderground v.1.15,2013-01-19 01:10:00,
2013-01-18 20:15:00,30.1,21.5,30.28,SSW,203,12.0,-999.0,70,0.00,,,0.00,Wunderground v.1.15,2013-01-19 01:15:00,
2013-01-18 20:20:00,30.1,21.5,30.27,SSW,203,12.0,-999.0,70,0.00,,,0.00,Wunderground v.1.15,2013-01-19 01:20:00,
2013-01-18 20:25:00,30.2,21.6,30.27,SSW,203,12.0,-999.0,70,0.00,,,0.00,Wunderground v.1.15,2013-01-19 01:25:00,
2013-01-18 20:30:00,30.2,21.6,30.27,SSW,203,11.0,-999.0,70,0.00,,,0.00,Wunderground v.1.15,2013-01-19 01:30:00,
2013-01-18 20:35:00,30.2,21.2,30.27,SSW,203,12.0,-999.0,69,0.00,,,0.00,Wunderground v.1.15,2013-01-19 01:35:00,
2013-01-18 20:40:00,30.2,21.6,30.27,SSW,203,12.0,-999.0,70,0.00,,,0.00,Wunderground v.1.15,2013-01-19 01:40:00,
2013-01-18 20:45:00,30.3,21.3,30.27,SSW,203,14.0,-999.0,69,0.00,,,0.00,Wunderground v.1.15,2013-01-19 01:45:00,
2013-01-18 20:50:00,30.4,21.4,30.26,SSW,203,12.0,-999.0,69,0.00,,,0.00,Wunderground v.1.15,2013-01-19 01:50:00,
2013-01-18 20:55:00,30.4,21.4,30.26,SSW,203,12.0,-999.0,69,0.00,,,0.00,Wunderground v.1.15,2013-01-19 01:55:00,
2013-01-18 21:00:00,30.4,21.1,30.25,SSW,203,12.0,-999.0,68,0.00,,,0.00,Wunderground v.1.15,2013-01-19 02:00:00,
2013-01-18 21:05:00,30.5,21.2,30.25,SSW,203,12.0,-999.0,68,0.00,,,0.00,Wunderground v.1.15,2013-01-19 02:05:00,
2013-01-18 21:10:00,30.5,21.2,30.25,SSW,203,12.0,-999.0,68,0.00,,,0.00,Wunderground v.1.15,2013-01-19 02:10:00,
2013-01-18 21:15:00,30.6,21.3,30.25,SSW,203,11.0,-999.0,68,0.00,,,0.00,Wunderground v.1.15,2013-01-19 02:15:00,
2013-01-18 21:20:00,30.6,21.6,30.25,SSW,203,9.0,-999.0,69,0.00,,,0.00,Wunderground v.1.15,2013-01-19 02:20:00,
2013-01-18 21:25:00,30.5,21.2,30.25,SSW,203,11.0,-999.0,68,0.00,,,0.00,Wunderground v.1.15,2013-01-19 02:25:00,
2013-01-18 21:30:00,30.6,21.3,30.25,SSW,203,11.0,-999.0,68,0.00,,,0.00,Wunderground v.1.15,2013-01-19 02:30:00,
2013-01-18 21:35:00,30.6,21.6,30.24,SSW,203,11.0,-999.0,69,0.00,,,0.00,Wunderground v.1.15,2013-01-19 02:35:00,
2013-01-18 21:40:00,30.6,21.3,30.24,SSW,203,12.0,-999.0,68,0.00,,,0.00,Wunderground v.1.15,2013-01-19 02:40:00,
2013-01-18 21:45:00,30.7,21.4,30.24,SSW,203,11.0,-999.0,68,0.00,,,0.00,Wunderground v.1.15,2013-01-19 02:45:00,
2013-01-18 21:50:00,30.8,21.5,30.23,SSW,203,11.0,-999.0,68,0.00,,,0.00,Wunderground v.1.15,2013-01-19 02:50:00,
2013-01-18 21:55:00,30.8,21.8,30.23,SSW,203,11.0,-999.0,69,0.00,,,0.00,Wunderground v.1.15,2013-01-19 02:55:00,
2013-01-18 22:07:00,30.9,21.9,30.22,SSW,203,11.0,-999.0,69,0.00,,,0.00,Wunderground v.1.15,2013-01-19 03:07:00,
2013-01-18 22:15:00,31.2,21.9,30.22,South,191,11.0,11.0,68,0.00,,,0.00,Wunderground v.1.15,2013-01-19 03:15:00,
2013-01-18 22:20:00,31.2,22.2,30.21,South,189,11.0,11.0,69,0.00,,,0.00,Wunderground v.1.15,2013-01-19 03:20:00,
2013-01-18 22:30:00,31.5,22.1,30.21,SSW,200,11.0,11.0,68,0.00,,,0.00,Wunderground v.1.15,2013-01-19 03:30:00,
2013-01-18 22:40:00,31.8,22.4,30.20,SSW,204,12.0,12.0,68,0.00,,,0.00,Wunderground v.1.15,2013-01-19 03:40:00,
2013-01-18 22:50:00,32.1,22.4,30.20,SSW,203,14.0,15.0,67,0.00,,,0.00,Wunderground v.1.15,2013-01-19 03:50:00,
2013-01-18 23:00:00,32.1,22.7,30.19,SSW,211,13.0,14.0,68,0.00,,,0.00,Wunderground v.1.15,2013-01-19 04:00:00,
2013-01-18 23:10:00,32.1,22.7,30.19,SW,217,12.0,13.0,68,0.00,,,0.00,Wunderground v.1.15,2013-01-19 04:10:00,
2013-01-18 23:15:00,32.1,22.7,30.19,WSW,239,12.0,13.0,68,0.00,,,0.00,Wunderground v.1.15,2013-01-19 04:15:00,
2013-01-18 23:25:00,32.3,22.9,30.18,SW,215,14.0,15.0,68,0.00,,,0.00,Wunderground v.1.15,2013-01-19 04:25:00,
2013-01-18 23:35:00,32.5,23.1,30.18,SSW,201,13.0,14.0,68,0.00,,,0.00,Wunderground v.1.15,2013-01-19 04:35:00,
2013-01-18 23:45:00,32.7,23.3,30.18,South,186,14.0,14.0,68,0.00,,,0.00,Wunderground v.1.15,2013-01-19 04:45:00,
2013-01-18 23:50:00,32.8,23.4,30.17,SW,232,15.0,15.0,68,0.00,,,0.00,Wunderground v.1.15,2013-01-19 04:50:00,